| time (UTC) | temp C | wind direction | speed KPH | gust KPH | rain 1hr cm | rain 24hr cm | rain mn cm | humidity % | barometer mb |
| 20260507094558 | 1 | 282 | 0.0 | 3.2 | 0.00 | 0.00 | 0.00 | 34 | 1011.9 |
| 20260507093059 | 1 | 282 | 0.0 | 0.0 | 0.00 | 0.00 | 0.00 | 35 | 1011.9 |
| 20260507091557 | 1 | 282 | 0.0 | 3.2 | 0.00 | 0.00 | 0.00 | 36 | 1011.9 |
| 20260507090050 | 1 | 282 | 0.0 | 3.2 | 0.00 | 0.00 | 0.00 | 42 | 1011.9 |
| 20260507084550 | 2 | 284 | 3.2 | 4.8 | 0.00 | 0.00 | 0.00 | 51 | 1011.9 |
| 20260507083048 | 2 | 284 | 1.6 | 3.2 | 0.00 | 0.00 | 0.00 | 55 | 1011.9 |
| 20260507081540 | 3 | 286 | 0.0 | 3.2 | 0.00 | 0.00 | 0.00 | 63 | 1012.0 |
| 20260507080040 | 3 | 286 | 0.0 | 0.0 | 0.00 | 0.00 | 0.00 | 66 | 1012.0 |
| 20260507074533 | 5 | 286 | 0.0 | 0.0 | 0.00 | 0.00 | 0.00 | 69 | 1012.1 |
| 20260507073032 | 5 | 286 | 1.6 | 3.2 | 0.00 | 0.00 | 0.00 | 69 | 1012.0 |
| 20260507071529 | 5 | 286 | 0.0 | 0.0 | 0.00 | 0.00 | 0.00 | 67 | 1012.0 |
| 20260507070026 | 5 | 286 | 0.0 | 1.6 | 0.00 | 0.00 | 0.00 | 68 | 1012.0 |
| 20260507064524 | 5 | 286 | 0.0 | 0.0 | 0.00 | 0.00 | 0.00 | 69 | 1012.2 |
| 20260507063022 | 6 | 286 | 1.6 | 4.8 | 0.00 | 0.00 | 0.00 | 69 | 1012.3 |
| 20260507061519 | 6 | 285 | 1.6 | 6.4 | 0.00 | 0.00 | 0.00 | 68 | 1012.4 |
| 20260507060021 | 6 | 285 | 3.2 | 6.4 | 0.00 | 0.00 | 0.00 | 67 | 1012.5 |
| 20260507054516 | 6 | 287 | 3.2 | 8.0 | 0.00 | 0.00 | 0.00 | 67 | 1012.5 |
| 20260507053014 | 7 | 280 | 3.2 | 9.7 | 0.00 | 0.00 | 0.00 | 64 | 1012.5 |
| 20260507051512 | 7 | 281 | 6.4 | 9.7 | 0.00 | 0.00 | 0.00 | 64 | 1012.6 |
| 20260507050009 | 7 | 290 | 6.4 | 9.7 | 0.00 | 0.00 | 0.00 | 62 | 1012.6 |
| 20260507044522 | 7 | 283 | 4.8 | 8.0 | 0.00 | 0.00 | 0.00 | 62 | 1012.5 |
| 20260507043005 | 7 | 286 | 3.2 | 8.0 | 0.00 | 0.00 | 0.00 | 63 | 1012.6 |
| 20260507041502 | 7 | 288 | 3.2 | 6.4 | 0.00 | 0.00 | 0.00 | 63 | 1012.5 |
| 20260507040059 | 8 | 288 | 3.2 | 8.0 | 0.00 | 0.00 | 0.00 | 60 | 1012.5 |
| 20260507034613 | 8 | 271 | 4.8 | 8.0 | 0.00 | 0.00 | 0.00 | 60 | 1012.5 |
| 20260507033058 | 8 | 270 | 6.4 | 9.7 | 0.00 | 0.00 | 0.00 | 60 | 1012.5 |
| 20260507031558 | 8 | 269 | 6.4 | 12.9 | 0.00 | 0.00 | 0.00 | 59 | 1012.5 |
| 20260507024559 | 8 | 273 | 8.0 | 11.3 | 0.00 | 0.00 | 0.00 | 58 | 1012.5 |
| 20260507023057 | 8 | 267 | 4.8 | 8.0 | 0.00 | 0.00 | 0.00 | 60 | 1012.5 |
| 20260507021557 | 8 | 259 | 4.8 | 8.0 | 0.00 | 0.00 | 0.00 | 54 | 1012.4 |
| 20260507020055 | 9 | 259 | 4.8 | 9.7 | 0.00 | 0.00 | 0.00 | 51 | 1012.3 |
| 20260507014558 | 9 | 236 | 4.8 | 9.7 | 0.00 | 0.00 | 0.00 | 51 | 1012.1 |
| 20260507013101 | 9 | 243 | 3.2 | 8.0 | 0.00 | 0.00 | 0.00 | 50 | 1012.1 |
| 20260507011556 | 10 | 249 | 4.8 | 11.3 | 0.00 | 0.00 | 0.00 | 47 | 1012.0 |
| 20260507010054 | 10 | 261 | 6.4 | 11.3 | 0.00 | 0.00 | 0.00 | 45 | 1012.0 |
| 20260507004553 | 10 | 239 | 4.8 | 12.9 | 0.00 | 0.00 | 0.00 | 45 | 1011.9 |
| 20260507003053 | 10 | 245 | 8.0 | 19.3 | 0.00 | 0.00 | 0.00 | 44 | 1011.8 |
| 20260507001552 | 10 | 259 | 11.3 | 16.1 | 0.00 | 0.00 | 0.00 | 43 | 1011.7 |
| 20260507000054 | 11 | 267 | 11.3 | 17.7 | 0.00 | 0.00 | 0.00 | 43 | 1011.5 |
| 20260506234555 | 11 | 261 | 9.7 | 20.9 | 0.00 | 0.00 | 0.00 | 43 | 1011.6 |
| 20260506233051 | 11 | 264 | 8.0 | 19.3 | 0.00 | 0.00 | 0.00 | 43 | 1011.6 |
| 20260506231550 | 11 | 272 | 12.9 | 20.9 | 0.00 | 0.00 | 0.00 | 41 | 1011.6 |
| 20260506230049 | 11 | 265 | 11.3 | 19.3 | 0.00 | 0.00 | 0.00 | 41 | 1011.4 |
| 20260506224601 | 11 | 269 | 12.9 | 22.5 | 0.00 | 0.00 | 0.00 | 40 | 1011.5 |
| 20260506223049 | 11 | 288 | 16.1 | 25.7 | 0.00 | 0.00 | 0.00 | 42 | 1011.4 |
| 20260506221547 | 11 | 273 | 14.5 | 20.9 | 0.00 | 0.00 | 0.00 | 42 | 1011.5 |
| 20260506220048 | 11 | 257 | 9.7 | 19.3 | 0.00 | 0.00 | 0.00 | 43 | 1011.5 |
| 20260506214604 | 11 | 275 | 12.9 | 19.3 | 0.00 | 0.00 | 0.00 | 43 | 1011.4 |
| 20260506213047 | 11 | 263 | 11.3 | 20.9 | 0.00 | 0.00 | 0.00 | 45 | 1011.4 |
| 20260506211545 | 11 | 275 | 11.3 | 17.7 | 0.00 | 0.00 | 0.00 | 43 | 1011.5 |
| 20260506210044 | 11 | 279 | 6.4 | 19.3 | 0.00 | 0.00 | 0.00 | 43 | 1011.4 |
| 20260506204543 | 11 | 246 | 9.7 | 14.5 | 0.00 | 0.00 | 0.00 | 46 | 1011.5 |
| 20260506203046 | 11 | 305 | 4.8 | 20.9 | 0.00 | 0.00 | 0.00 | 45 | 1011.5 |
| 20260506201542 | 11 | 212 | 9.7 | 16.1 | 0.00 | 0.00 | 0.00 | 48 | 1011.7 |
| 20260506200042 | 11 | 256 | 8.0 | 17.7 | 0.00 | 0.00 | 0.00 | 47 | 1011.7 |
| 20260506194556 | 11 | 236 | 8.0 | 17.7 | 0.00 | 0.00 | 0.00 | 48 | 1011.8 |
| 20260506193040 | 11 | 195 | 8.0 | 16.1 | 0.00 | 0.00 | 0.00 | 48 | 1012.0 |
| 20260506191540 | 10 | 239 | 4.8 | 11.3 | 0.00 | 0.00 | 0.00 | 49 | 1012.1 |
| 20260506190043 | 10 | 336 | 4.8 | 17.7 | 0.00 | 0.00 | 0.00 | 54 | 1012.1 |
| 20260506184539 | 10 | 257 | 8.0 | 14.5 | 0.00 | 0.00 | 0.00 | 52 | 1012.3 |
| 20260506183039 | 11 | 259 | 4.8 | 19.3 | 0.00 | 0.00 | 0.00 | 49 | 1012.1 |
| 20260506181539 | 10 | 11 | 4.8 | 16.1 | 0.00 | 0.00 | 0.00 | 53 | 1012.1 |
| 20260506180042 | 10 | 316 | 4.8 | 17.7 | 0.00 | 0.00 | 0.00 | 51 | 1012.2 |
| 20260506174536 | 10 | 296 | 8.0 | 16.1 | 0.00 | 0.00 | 0.00 | 53 | 1012.4 |
| 20260506173034 | 10 | 331 | 11.3 | 20.9 | 0.00 | 0.00 | 0.00 | 52 | 1012.6 |
| 20260506171549 | 10 | 324 | 8.0 | 24.1 | 0.00 | 0.00 | 0.00 | 50 | 1012.8 |
| 20260506170038 | 10 | 332 | 8.0 | 22.5 | 0.00 | 0.00 | 0.00 | 49 | 1012.6 |
| 20260506164534 | 10 | 313 | 14.5 | 29.0 | 0.00 | 0.00 | 0.00 | 50 | 1012.5 |
| 20260506163034 | 9 | 351 | 8.0 | 16.1 | 0.00 | 0.00 | 0.00 | 56 | 1012.6 |
| 20260506161527 | 9 | 350 | 8.0 | 12.9 | 0.00 | 0.00 | 0.00 | 60 | 1012.6 |
| 20260506160030 | 8 | 229 | 3.2 | 12.9 | 0.00 | 0.00 | 0.00 | 60 | 1012.8 |
| 20260506154525 | 8 | 43 | 6.4 | 16.1 | 0.00 | 0.00 | 0.00 | 61 | 1012.8 |
| 20260506153022 | 8 | 28 | 3.2 | 8.0 | 0.00 | 0.00 | 0.00 | 66 | 1012.8 |
| 20260506151530 | 8 | 360 | 8.0 | 12.9 | 0.00 | 0.00 | 0.00 | 68 | 1012.7 |
| 20260506150019 | 7 | 345 | 1.6 | 12.9 | 0.00 | 0.00 | 0.00 | 68 | 1012.6 |
| 20260506144518 | 7 | 5 | 6.4 | 9.7 | 0.00 | 0.00 | 0.00 | 69 | 1012.7 |
| 20260506143020 | 7 | 34 | 3.2 | 9.7 | 0.00 | 0.00 | 0.00 | 69 | 1012.6 |
| 20260506141515 | 6 | 27 | 0.0 | 6.4 | 0.00 | 0.00 | 0.00 | 69 | 1012.4 |
| 20260506140021 | 6 | 5 | 3.2 | 11.3 | 0.00 | 0.00 | 0.00 | 70 | 1012.2 |
| 20260506134515 | 6 | 58 | 3.2 | 11.3 | 0.00 | 0.00 | 0.00 | 69 | 1012.2 |
| 20260506133027 | 6 | 348 | 11.3 | 16.1 | 0.00 | 0.00 | 0.00 | 67 | 1012.3 |
| 20260506131517 | 6 | 340 | 11.3 | 16.1 | 0.00 | 0.00 | 0.00 | 65 | 1012.1 |
| 20260506130011 | 5 | 5 | 11.3 | 14.5 | 0.00 | 0.00 | 0.00 | 60 | 1012.0 |
| 20260506124508 | 5 | 30 | 6.4 | 16.1 | 0.00 | 0.00 | 0.00 | 56 | 1011.8 |
| 20260506123007 | 5 | 29 | 9.7 | 16.1 | 0.00 | 0.00 | 0.00 | 54 | 1011.5 |
| 20260506121506 | 5 | 57 | 11.3 | 16.1 | 0.00 | 0.00 | 0.00 | 48 | 1011.3 |
| 20260506120004 | 5 | 49 | 9.7 | 16.1 | 0.00 | 0.00 | 0.00 | 44 | 1011.1 |
| 20260506114604 | 5 | 29 | 12.9 | 17.7 | 0.00 | 0.00 | 0.00 | 49 | 1010.6 |
| 20260506113101 | 5 | 55 | 9.7 | 14.5 | 0.00 | 0.00 | 0.00 | 53 | 1010.5 |
| 20260506111605 | 5 | 74 | 6.4 | 11.3 | 0.00 | 0.00 | 0.00 | 48 | 1010.4 |
| 20260506110053 | 4 | 118 | 4.8 | 8.0 | 0.00 | 0.00 | 0.00 | 52 | 1010.3 |
| 20260506104557 | 4 | 146 | 1.6 | 6.4 | 0.00 | 0.00 | 0.00 | 53 | 1010.1 |
| 20260506103057 | 4 | 155 | 0.0 | 0.0 | 0.00 | 0.00 | 0.00 | 61 | 1009.8 |
| 20260506101550 | 4 | 167 | 0.0 | 0.0 | 0.00 | 0.00 | 0.00 | 65 | 1009.6 |
| 20260506100041 | 5 | 43 | 0.0 | 9.7 | 0.00 | 0.00 | 0.00 | 68 | 1009.2 |